Theta_e
318 315 313 317 315 312 314 314 316 317 319 319 319 319 321 321 324 326 322 328 331 328 327 328 328 328 328 329 329 329 329 328 328 327 326 323 321 320 319 319 319 320 323 325 326 325 329 330 330
311 313 313 316 311 311 310 311 315 315 319 320 321 322 321 322 323 325 325 328 332 329 329 328 328 327 327 329 329 328 328 327 326 322 320 319 317 316 314 312 311 312 313 316 321 326 330 330 331
308 312 313 313 310 311 313 313 314 317 320 320 321 322 321 321 323 324 326 327 329 330 329 328 327 325 327 328 328 328 327 324 321 319 316 313 309 307 306 306 306 306 306 307 310 319 327 330 331
309 311 314 313 315 313 312 313 315 320 321 322 322 321 322 322 323 323 324 327 325 326 328 327 324 324 326 327 326 325 322 320 317 313 308 307 306 306 305 305 305 305 305 305 305 307 313 326 330
311 312 308 311 312 312 311 312 313 319 318 321 322 320 320 321 322 323 323 325 326 325 326 324 323 323 324 324 322 320 318 315 310 307 306 306 306 306 306 306 306 306 305 305 305 304 305 310 323
313 311 309 308 309 310 310 312 314 317 318 318 320 320 320 321 321 323 323 323 324 323 323 322 321 321 321 320 318 316 312 309 308 307 306 306 306 306 305 305 304 304 304 304 304 304 304 304 307
312 311 310 311 313 313 313 314 315 315 315 317 320 319 320 320 320 322 322 321 322 322 321 321 320 319 318 317 314 311 309 308 307 307 307 307 306 304 304 308 310 310 310 309 309 309 304 303 304
314 310 313 312 313 314 314 315 316 315 316 316 318 318 318 319 319 321 321 321 321 320 320 319 318 317 315 313 310 310 309 307 307 308 308 307 304 306 310 310 310 310 309 310 311 311 310 308 305
316 314 313 314 314 315 314 314 315 316 316 316 317 318 318 318 318 320 320 320 320 320 319 318 317 315 313 311 310 310 308 308 308 308 307 304 306 310 310 310 309 306 306 308 309 310 309 310 308
313 313 313 312 312 313 313 313 314 314 314 315 316 317 317 317 317 318 319 319 319 319 318 317 316 314 312 311 311 310 309 308 308 308 305 306 310 311 310 309 307 307 307 307 307 307 307 308 309
312 313 311 312 313 313 313 313 313 312 312 314 316 316 316 316 316 317 318 319 318 318 318 317 315 313 312 311 311 311 309 308 308 306 305 310 311 310 309 308 307 307 307 307 307 307 308 309 311
313 312 311 312 313 313 312 313 312 312 314 315 315 315 315 315 316 316 317 317 318 317 317 316 314 313 312 312 311 311 310 308 308 305 310 311 309 308 308 308 307 307 307 307 308 310 311 312 311
313 312 312 312 312 312 312 312 312 313 316 315 315 315 315 315 316 316 316 317 317 317 317 316 314 313 312 312 312 311 309 308 306 308 310 309 308 306 308 307 307 306 307 308 310 312 312 307 305
312 312 312 313 314 313 312 312 312 315 316 316 317 317 317 317 316 316 316 316 316 316 316 316 315 313 313 312 312 311 309 308 306 310 309 307 307 306 306 307 307 306 307 310 313 313 311 314 314
313 314 312 312 312 312 312 313 312 316 315 315 316 317 317 317 317 318 317 316 316 316 316 316 315 313 313 312 311 310 308 306 310 310 308 308 307 307 307 307 307 307 309 311 313 314 314 315 315
313 312 314 313 311 312 312 317 314 316 315 316 317 318 318 318 318 318 318 317 316 315 315 315 314 313 313 312 311 309 308 307 310 310 308 308 307 306 306 307 306 309 311 313 313 313 314 314 317
310 314 313 314 312 312 312 315 314 315 315 316 318 319 318 318 318 317 317 317 316 315 315 315 314 313 312 312 311 309 306 310 311 309 308 307 306 306 306 307 309 310 314 317 314 315 315 315 316
313 314 313 314 313 313 313 313 313 315 314 315 317 317 317 317 316 317 317 316 315 315 314 314 314 313 312 312 310 308 306 311 311 308 307 307 306 306 309 309 310 312 313 314 314 315 314 318 318
310 313 315 314 311 313 313 312 313 314 313 313 314 315 314 315 315 315 316 315 314 314 314 314 313 312 312 311 309 306 309 311 310 308 307 306 306 309 310 311 314 315 314 313 313 315 316 318 317
310 311 311 312 311 312 311 313 313 312 312 312 312 313 313 313 313 314 315 314 313 314 314 314 313 312 312 310 308 306 311 312 309 308 307 306 308 311 311 311 314 314 314 314 314 317 317 317 317
311 311 311 311 311 310 309 314 313 312 310 311 312 312 311 312 313 313 313 313 313 313 314 313 312 312 311 309 306 308 311 311 309 308 307 307 310 312 313 312 314 314 314 316 315 316 317 317 316
311 309 310 312 314 316 309 319 311 312 309 309 309 310 311 312 312 311 312 312 312 313 312 312 311 311 310 308 306 311 312 309 310 308 307 308 311 312 313 314 314 314 314 315 315 315 317 316 315
311 309 311 312 311 312 312 313 315 308 310 309 307 307 309 310 310 310 310 311 312 312 311 311 311 310 309 306 307 311 312 309 312 309 308 309 311 313 314 314 313 313 314 315 316 316 317 316 316
307 308 308 307 308 310 309 311 316 309 306 305 303 304 308 309 309 309 309 309 310 310 310 311 310 309 307 305 307 311 312 309 313 310 310 310 312 313 313 313 314 313 315 315 316 316 317 315 315
309 312 314 311 311 315 307 309 313 305 301 300 300 301 305 307 308 308 308 309 309 309 310 310 309 308 306 304 308 311 312 309 312 313 311 311 312 313 313 314 315 315 314 314 315 315 316 315 316
308 311 313 312 309 310 308 311 310 301 300 299 299 298 303 305 306 306 307 308 308 308 309 309 308 307 305 304 308 311 312 310 309 312 314 312 312 313 313 313 314 315 315 315 315 315 315 315 316
310 311 306 306 299 306 307 307 306 302 301 299 297 297 297 301 303 305 305 305 306 307 307 307 308 307 304 304 308 311 312 312 309 310 312 314 314 312 312 315 316 314 315 316 316 316 316 316 316
309 307 311 307 306 308 305 307 306 303 300 298 296 295 295 299 302 304 304 304 305 305 306 306 307 306 304 303 307 310 311 312 311 310 311 314 315 313 314 315 315 315 315 315 316 316 316 316 314
308 309 306 308 307 306 307 307 303 300 298 297 295 294 293 295 298 300 302 303 304 305 305 306 306 306 304 303 304 307 309 311 312 311 311 314 314 315 314 315 314 315 314 314 314 315 316 315 313
306 308 307 307 307 306 308 307 299 297 296 295 294 293 293 294 295 298 299 300 302 304 304 305 305 305 305 304 303 304 306 309 311 312 311 312 314 314 316 314 314 314 314 314 314 314 315 315 314
Wind_Speed
8 5 4 3 3 4 2 4 2 3 2 2 5 4 4 3 4 3 3 13 15 16 15 15 14 12 10 9 10 9 8 8 9 11 12 12 14 15 17 18 19 19 20 19 19 18 16 16 17
8 8 5 2 4 2 3 3 5 4 0 2 3 2 1 3 5 3 4 13 15 17 14 13 10 8 8 9 9 9 9 10 11 12 14 16 18 19 20 21 22 22 23 23 23 23 19 21 19
9 10 3 4 3 4 3 5 3 2 2 2 0 1 2 2 3 2 4 12 14 17 14 11 9 8 9 9 9 9 10 11 13 15 17 18 19 19 19 20 20 21 22 24 25 27 26 25 23
8 6 4 3 4 5 4 3 1 2 3 3 1 4 4 5 2 3 7 11 13 14 13 11 9 8 8 9 9 9 10 13 15 16 17 17 18 19 20 21 22 23 24 25 26 28 30 29 26
9 4 3 2 4 4 4 7 3 2 2 3 3 3 3 5 7 4 6 12 11 13 13 11 10 9 9 9 8 10 12 14 15 16 16 18 19 21 23 24 25 27 28 28 28 29 30 33 33
3 3 2 3 4 4 4 7 2 3 4 3 4 2 3 5 5 6 8 11 11 11 11 10 9 8 9 9 9 11 12 14 15 15 17 19 21 22 24 26 28 29 30 31 32 32 32 32 33
5 4 3 3 3 4 3 3 3 4 4 5 3 2 2 3 5 7 9 12 13 13 11 10 9 9 9 9 10 11 13 14 14 16 18 20 23 25 27 26 25 25 25 26 26 28 31 33 33
3 3 2 3 3 4 1 3 2 5 4 4 6 4 3 0 4 8 11 13 14 14 14 12 11 10 9 9 10 11 13 13 15 17 19 22 25 24 23 22 22 23 23 16 15 16 17 23 32
5 3 2 4 5 2 2 2 1 3 3 4 7 7 8 8 7 12 14 16 17 17 16 14 12 10 10 9 10 11 12 14 15 18 21 23 22 21 20 20 20 16 15 13 14 14 16 18 21
4 4 8 5 4 2 1 1 3 3 2 5 10 14 16 14 14 16 16 17 18 17 15 14 12 10 10 10 10 10 13 14 17 20 22 22 20 19 18 17 14 14 14 14 16 18 14 12 15
6 5 4 3 4 3 1 3 4 3 5 13 11 7 10 11 15 19 19 19 17 15 15 13 12 11 11 11 10 12 14 16 18 21 22 19 18 18 18 15 14 14 13 13 16 13 10 11 14
3 7 4 1 2 2 2 4 6 12 15 19 18 16 16 15 17 18 18 19 18 18 15 13 14 12 12 11 11 13 15 17 19 21 20 18 18 18 15 13 12 12 12 13 10 11 12 14 13
2 3 5 9 8 7 9 12 9 23 27 26 24 25 26 24 20 17 16 19 20 19 17 16 15 13 12 12 12 14 16 18 20 20 18 17 16 15 10 9 9 9 9 8 10 12 11 8 2
6 4 5 5 9 9 4 5 2 4 5 6 10 10 11 11 12 14 19 19 22 19 19 18 16 14 13 12 12 15 16 18 20 17 16 14 12 11 10 6 5 7 5 7 8 7 8 12 9
4 2 2 6 4 5 6 7 8 19 16 15 12 14 13 10 10 11 15 18 19 19 20 19 16 14 12 12 13 15 16 18 17 15 14 11 11 11 10 5 3 3 5 5 7 7 10 11 7
2 3 2 2 3 2 2 8 5 8 4 8 11 11 14 20 24 24 19 19 19 20 21 19 17 13 12 11 13 14 15 16 14 13 12 11 11 9 6 3 1 7 6 6 6 8 14 11 9
3 3 3 2 1 2 3 6 4 1 16 30 32 31 27 28 27 25 24 22 20 20 21 19 16 14 12 11 11 13 14 13 13 13 11 9 7 4 3 9 10 8 8 7 9 12 12 11 11
4 3 3 2 4 2 3 12 15 24 22 30 36 35 32 28 19 11 14 21 20 19 21 19 16 15 12 10 10 11 12 11 13 10 9 5 3 4 11 11 8 7 9 8 9 10 10 15 13
5 2 2 0 2 2 4 9 15 21 23 23 26 25 19 11 11 13 11 15 19 17 19 19 16 14 10 9 9 10 10 10 11 8 5 2 5 11 12 8 8 11 11 8 7 15 18 17 13
3 2 2 2 2 0 6 17 13 9 7 9 16 19 14 10 7 7 4 12 17 16 20 18 15 12 8 8 8 8 8 9 7 5 2 3 9 12 9 10 9 10 9 8 12 18 15 14 14
2 4 3 3 4 3 6 9 6 4 6 13 22 15 7 10 10 6 3 11 16 17 18 17 14 10 7 8 8 7 6 8 4 2 2 5 11 11 8 9 9 10 9 9 12 11 13 13 11
3 5 5 3 3 2 3 5 6 6 8 6 24 27 19 16 12 5 4 12 17 18 17 16 12 8 7 7 7 6 6 4 2 0 3 8 11 10 5 7 12 8 9 8 10 10 9 13 13
4 5 5 3 4 2 3 2 7 4 5 10 17 30 24 16 15 7 3 11 16 18 17 14 10 6 7 6 6 6 5 2 1 2 4 9 11 9 5 6 9 9 7 8 10 10 12 10 8
8 6 5 4 3 1 2 3 5 4 7 7 17 26 24 18 15 8 3 9 16 18 15 11 7 5 5 6 6 6 4 3 3 3 4 8 10 8 4 3 7 11 10 8 8 11 12 9 7
2 4 2 3 2 4 2 1 5 4 4 8 15 24 24 20 16 10 4 10 13 14 12 9 6 4 4 6 5 6 5 4 6 5 5 6 8 8 5 4 7 10 14 12 11 8 11 9 7
6 3 5 6 3 1 3 5 2 5 10 16 20 23 24 24 20 13 6 8 9 8 7 5 3 4 4 6 6 6 6 5 8 8 7 8 9 9 9 9 9 12 13 12 11 9 10 10 7
6 3 3 6 3 3 3 4 3 4 12 21 23 28 30 28 24 17 10 5 4 5 5 5 4 4 5 6 6 6 7 6 9 10 10 8 9 11 10 7 10 13 14 13 12 12 10 9 9
2 5 3 3 3 3 3 5 3 6 10 12 18 23 26 25 24 20 14 7 0 3 4 5 6 6 6 7 7 7 8 9 9 11 10 10 8 9 9 8 9 8 11 13 12 12 10 10 10
3 2 4 3 4 4 2 4 1 3 4 7 12 19 24 25 23 21 17 11 6 3 4 5 6 7 8 8 8 7 8 10 11 11 12 10 10 9 10 10 11 12 11 12 14 13 12 11 12
1 5 5 4 4 2 2 3 4 6 7 8 12 17 22 23 23 21 19 15 11 8 5 5 6 8 10 10 9 9 9 10 12 13 13 14 13 12 10 11 14 15 15 16 17 17 16 14 14
Wind_Direction
217 200 179 164 70 66 258 261 275 238 234 196 143 147 192 155 169 210 238 173 179 185 181 181 187 201 212 212 220 234 252 260 262 269 275 279 279 276 273 273 273 269 264 260 258 256 256 262 259
200 179 169 127 98 105 262 249 235 225 327 149 154 159 165 251 224 268 184 178 179 187 188 189 197 210 212 214 224 239 253 263 270 275 279 279 278 277 276 275 273 269 266 262 257 252 249 249 252
183 169 155 102 122 187 206 208 259 292 210 194 228 298 270 219 220 226 192 183 180 184 195 201 207 215 215 220 234 245 255 266 274 276 276 279 282 283 281 279 276 273 270 266 258 252 247 245 246
168 145 81 109 208 250 220 205 151 296 172 215 242 297 266 251 233 214 206 188 182 184 198 202 215 224 223 231 241 251 261 269 276 279 282 286 287 286 285 282 280 278 274 269 264 258 252 247 247
165 125 82 109 249 258 225 267 231 212 166 173 183 257 250 269 240 231 196 197 195 192 197 203 214 223 229 236 247 261 271 276 278 282 287 290 291 290 289 288 285 282 277 273 268 262 255 250 244
133 116 87 208 241 250 258 239 231 219 182 185 210 252 260 268 262 215 193 191 197 203 207 211 221 225 238 247 259 269 275 279 282 288 292 292 292 291 290 289 287 284 280 275 269 265 261 255 250
144 103 208 180 241 288 229 143 202 205 180 223 204 152 253 268 246 208 193 194 202 203 214 223 228 238 244 256 267 274 280 284 290 296 298 299 300 299 299 298 296 293 286 278 274 267 259 257 253
158 93 136 229 211 254 205 169 230 210 243 181 189 214 249 201 230 215 205 202 205 212 216 225 229 241 249 263 270 277 284 291 298 299 303 303 304 306 306 305 303 305 299 293 290 287 279 268 255
153 83 213 233 177 256 31 28 236 241 241 226 217 243 259 274 253 225 217 213 214 218 221 226 229 238 255 268 276 282 288 294 300 307 307 308 308 304 302 302 311 319 319 310 311 301 292 269 264
148 161 208 208 196 184 194 171 294 270 252 249 257 260 265 268 262 246 235 232 227 230 231 234 234 244 258 270 276 284 294 302 308 311 310 310 306 304 303 308 310 314 313 308 308 314 302 295 281
179 199 213 227 225 260 251 270 237 205 255 245 263 286 275 264 254 240 236 236 242 240 237 240 240 251 261 271 276 291 301 307 313 313 313 310 309 307 305 303 309 314 318 318 314 317 314 305 301
180 228 198 247 173 210 242 282 270 228 251 278 282 279 275 266 265 254 247 242 237 236 238 237 241 252 261 271 278 294 303 310 314 314 315 314 312 308 299 296 306 317 320 327 359 0 339 312 298
214 227 197 238 250 268 262 252 258 269 277 277 272 270 271 266 265 258 248 239 236 235 237 237 240 252 260 268 277 292 304 311 316 317 315 314 318 315 314 293 304 321 329 16 15 358 339 341 17
209 220 277 294 274 256 235 263 229 280 280 275 280 271 269 260 255 249 243 240 238 239 236 235 238 244 255 264 276 293 305 313 317 315 315 319 323 328 325 307 305 333 29 35 11 17 46 56 78
161 272 292 232 245 231 211 262 232 275 287 279 273 262 261 259 257 287 273 254 246 243 239 235 235 243 251 258 276 294 307 314 315 315 318 320 316 321 320 326 351 5 90 48 72 80 91 84 78
115 48 238 130 173 238 156 276 272 323 310 299 293 291 285 276 279 283 271 258 242 236 235 231 230 236 243 253 276 295 308 316 314 317 317 320 311 318 319 337 75 109 63 87 104 104 90 96 107
19 199 219 354 193 102 114 280 295 310 313 303 297 295 294 290 288 283 266 250 237 231 228 224 225 231 229 249 277 297 311 315 317 317 320 317 324 340 58 102 115 98 100 98 120 118 108 119 111
187 200 214 257 4 32 244 266 280 292 297 290 292 294 299 302 305 291 267 235 226 221 216 213 214 219 223 249 279 299 312 313 322 321 325 328 7 97 116 112 112 114 119 121 137 133 121 119 121
119 95 55 16 24 313 263 280 282 288 282 281 293 307 318 330 317 306 275 221 209 209 203 203 207 214 224 254 280 301 309 315 321 326 336 28 107 124 120 111 106 107 123 143 150 145 134 133 131
63 36 302 296 19 78 338 296 277 281 277 305 322 329 331 350 345 329 273 207 201 200 192 195 199 206 234 264 284 301 303 319 312 330 17 114 133 132 123 126 121 123 143 157 152 151 142 143 140
192 193 179 216 332 63 331 297 339 300 22 20 32 14 13 2 353 339 226 184 184 185 188 190 194 207 232 267 286 296 302 325 320 344 98 143 146 144 125 131 143 152 163 158 150 166 165 159 144
177 196 165 164 95 236 11 284 310 312 345 35 18 17 11 5 5 358 190 181 174 177 179 185 190 214 243 263 286 288 300 323 318 127 142 151 154 148 134 130 157 162 160 169 161 161 180 173 156
209 125 145 117 113 31 338 87 271 9 3 359 359 360 7 5 6 10 173 176 169 174 178 183 191 220 252 267 283 280 296 290 215 163 146 158 162 157 135 129 151 159 152 166 163 168 186 188 184
155 87 64 57 91 58 279 137 287 19 327 331 347 5 16 14 13 20 131 166 171 173 179 187 200 219 249 272 280 274 288 247 193 163 149 166 173 178 185 200 174 181 162 155 181 186 186 193 202
31 107 12 356 10 214 25 45 254 40 5 7 352 358 21 28 27 29 97 155 173 179 181 192 214 239 254 284 282 268 270 238 209 195 183 178 191 202 217 227 191 171 177 180 199 204 198 200 237
195 182 161 200 197 235 89 227 255 107 44 29 26 19 33 33 33 44 71 152 167 189 204 221 247 268 278 294 284 267 256 243 223 218 207 206 212 225 238 244 234 189 187 195 204 196 216 239 237
186 187 160 105 40 49 222 279 263 46 20 19 19 27 27 34 37 40 80 122 173 194 251 270 290 283 287 297 285 267 257 253 233 230 231 237 228 222 230 234 221 207 200 198 205 210 221 236 245
151 166 82 9 150 233 283 286 234 356 355 4 10 15 25 41 47 51 51 68 315 222 242 278 291 282 286 300 296 279 264 254 249 238 237 239 236 217 215 217 203 204 205 203 208 210 219 231 220
121 185 54 130 157 171 170 248 45 102 14 9 10 16 26 39 44 52 54 45 26 339 288 281 280 280 290 294 293 291 276 264 258 251 242 238 233 229 230 219 221 223 222 218 220 221 220 227 224
64 199 171 145 215 222 143 261 103 97 58 31 28 35 40 42 44 49 50 47 39 25 354 320 292 278 278 275 279 286 283 271 262 255 250 243 241 241 240 233 235 236 231 231 235 233 228 232 229